Showing default

YAOGAN 20A, 40109

Orbit data source: Space-Track

YAOGAN 20A, 40109 is a payload satellite owned by PLA GAD (CN) in LEO that was launched on Sat, 09 Aug 2014 UTC via a CHANG ZHENG 4C launch vehicle from the Jiuquan Satellite Launch Center, China (JSC). Payloads include a variety of satellites, spacecraft, and rockets equipped with specific instruments for various scientific and technological missions. These include communications satellites like Starlink; space stations such as the ISS; scientific satellites like the Hubble; Earth observation satellites from companies like Planet Labs, Umbra, and HawkEye 360; GPS; miniature CubeSats for education and research; and military/defense satellites.

Loading next visibility...
YAOGAN 20A details
Identifier
40109, 2014-047A
Orbit
LEO
Last TLE update7 hours ago
Origin
Flag of CNPLA GAD (CN / PRC)
ManufacturerCAST
MissionOperational Defense Sigint
Bus & MotorJB-8, Unknown motor
Mass~500 kg wet, ~500 kg dry
Launch date (UTC)
2014-08-09 (10 years ago)
Launch vehicle
CHANG ZHENG 4C
Launch site
Jiuquan Satellite Launch Center, China (JSC)
Object type
Payload
Rocket body
Debris
Shape & HBRBox + 2 Pan, 1 m
Radar Cross Section0.446 m², Large (>1 m²)

Expand to show TLE details & history

TLE from 7 hours ago
0 YAOGAN 20A
1 40109U 14047A   24361.53052837  .00000190  00000-0  33192-3 0  9990
2 40109  63.3851 324.7060 0342915  11.9444 348.9459 13.45356533510108
Epoch: 2024-12-26T12:43Z
Definitive object data (Epoch: 2024-12-26T12:43:57.651Z)
Latitude-0.00003°
Longitude38.20717°
Altitude840.152 km
Speed7.557 km/s
True Right ascension21h 38m 49s
True Declination0° 00' 00"
Sunlit
Object was in daylight at TLE epoch
Visualization TLE readout
Latitude-61.92435°
Longitude-73.33131°
Altitude1,198.834 km
Speed7.212 km/s
Apparent Right ascension09h 37m 24s
Apparent Declination-65° 32' 29"
Sunlit
Object is in daylight
Visualization observer readout
Local Sidereal Time18:45:56
Azimuth209.225° SW
Elevation-54.77°
Doppler factor1
Orbital elements
Apogee altitude1,344.254 km
Perigee altitude832.189 km
Semi-major axis7,466.358 km
Eccentricity0.0342915
Inclination63.3851°
RAAN324.706°
Arg. of periapsis11.9444°
True anomaly348.15947°
Mean anomaly348.9459°
Eccentric anomaly348.55607°
Mean motion3.36419 °/min
BSTAR0.00033192
Orbital period107.01 mins
Loading maneuver chart data...
Loading historical data...
Loading historical data...
Loading historical data...
Loading historical data...
Loading historical data...
Loading historical data...
Loading historical data...

YAOGAN 20A Visibility forecast

Observer location: undefined°, undefined

Span
Click to sort rows by Start time (UTC) header in descending order
Start Az.
Max El. time (UTC)
Max El. Az.
Max El.
End time (UTC)
End Az.
11 mins2024-12-26 23:33:17.420Z205.309° SW2024-12-26 23:38:17.420Z150.818° SSE43.811°2024-12-26 23:44:17.420Z37.182° NE
7 mins2024-12-27 01:27:17.420Z290.863° WNW2024-12-27 01:30:17.420Z330.895° NNW20.318°2024-12-27 01:34:17.420Z12.035° NNE
11 mins2024-12-27 07:05:17.420Z347.872° N2024-12-27 07:10:17.420Z48.122° ENE30.373°2024-12-27 07:16:17.420Z106.125° ESE
13 mins2024-12-27 08:55:17.420Z315.155° NNW2024-12-27 09:01:17.420Z233.145° WSW40.274°2024-12-27 09:08:17.420Z166.817° S
|